Cloud_Cover
0 0 0 0 0 0 0 3 5 38 4 85 96 87 45 82 16 14 78 62 38 100 83 66 5 29 0 2 5 5 5 5 100 100 95 42 44 84 14 5 5 6 6 5 5 2 4 5 0
0 0 0 0 0 0 0 5 0 0 0 3 68 99 44 82 99 100 100 85 46 95 81 27 6 67 9 5 37 41 88 65 100 100 91 5 40 5 92 66 11 62 25 16 39 6 6 6 6
0 0 0 0 0 0 0 1 5 4 0 2 4 2 9 72 100 100 93 97 93 99 93 12 12 100 26 62 100 100 100 94 89 89 98 63 42 26 71 70 99 14 6 16 6 5 21 49 8
0 0 0 0 0 0 2 4 5 5 2 5 0 5 38 83 98 100 99 98 87 100 100 98 100 100 98 100 100 100 91 100 91 32 7 91 79 100 97 25 5 26 5 5 4 5 5 5 5
0 0 0 0 0 1 13 100 5 31 5 21 10 62 90 96 100 68 92 62 92 100 100 100 100 100 100 99 100 82 100 100 100 100 99 100 100 100 88 23 98 5 27 5 5 11 5 5 5
0 0 0 0 2 5 11 100 100 11 19 20 100 100 100 93 100 100 95 100 100 100 100 100 100 100 100 100 100 98 100 100 99 100 100 100 100 100 88 100 99 14 13 6 98 10 5 5 7
0 0 3 3 5 48 65 100 100 96 100 89 100 100 100 100 100 100 78 95 80 100 100 100 100 100 100 100 100 100 100 100 100 100 100 100 100 100 100 100 58 57 55 100 24 28 5 5 5
0 0 36 7 99 100 93 61 100 100 97 83 100 100 100 100 100 100 100 100 84 100 100 82 100 100 100 100 100 100 100 100 100 100 100 100 100 100 100 100 61 11 73 65 5 5 5 5 9
0 0 100 65 82 77 80 100 100 94 98 100 100 100 100 100 100 100 100 100 100 100 100 100 100 100 100 100 100 100 100 100 100 100 100 100 100 100 100 100 100 100 100 79 54 12 100 100 100
0 8 100 91 100 70 90 100 100 92 100 100 100 100 100 100 100 100 100 100 100 92 100 100 100 100 100 100 100 100 100 100 100 100 100 100 100 100 100 99 100 100 100 90 86 100 91 100 13
2 79 99 5 68 100 100 100 99 100 100 100 100 100 100 100 100 100 100 100 100 99 100 100 100 100 100 100 100 100 100 100 100 100 100 100 100 100 100 100 100 100 100 100 100 100 100 77 42
7 78 100 100 86 100 100 100 100 100 100 100 100 100 100 100 100 100 100 100 100 100 100 100 100 100 100 100 100 100 100 100 100 100 100 100 100 100 100 100 100 100 100 100 94 75 8 100 28
6 100 100 100 100 80 99 100 100 100 100 100 100 98 100 100 100 100 100 100 100 100 100 100 100 100 100 100 100 100 100 100 100 100 100 100 100 100 100 100 100 100 100 100 100 100 94 13 53
100 49 45 100 100 100 100 100 100 94 100 93 100 100 100 100 100 100 100 100 100 100 100 100 100 100 100 100 100 100 100 100 100 100 100 100 100 100 100 100 97 68 100 81 95 98 100 62 100
81 76 100 100 100 100 100 69 100 80 100 100 100 100 100 100 100 100 100 100 100 100 100 100 100 100 100 100 100 100 100 100 100 100 100 100 100 100 100 100 100 100 100 100 99 71 76 7 65
84 84 96 96 91 91 100 100 68 100 100 100 100 100 100 100 100 100 100 98 100 100 100 100 100 100 100 100 100 100 100 100 100 100 100 100 100 100 100 100 100 100 100 100 19 52 100 100 100
47 40 50 100 100 100 100 100 100 100 100 100 100 100 100 100 100 100 100 100 100 82 96 87 100 100 100 100 100 100 100 100 100 100 100 100 99 100 100 100 100 100 100 100 100 100 100 100 90
100 100 94 100 89 100 100 100 100 100 100 100 100 100 100 100 100 94 100 71 81 39 65 95 100 100 100 100 100 100 100 100 100 100 100 100 100 100 100 100 98 49 94 95 100 98 25 88 25
95 100 100 100 100 99 100 99 100 100 100 100 100 100 100 100 100 100 100 100 100 99 24 50 98 100 100 100 100 100 100 100 100 100 100 100 100 100 100 100 100 100 100 100 96 100 74 7 42
44 55 100 100 100 94 97 53 100 100 100 100 100 100 100 100 100 98 99 100 100 100 100 100 29 30 5 61 98 97 100 94 100 100 100 99 100 100 100 100 100 100 88 65 31 6 6 5 5
17 70 94 90 92 100 85 89 100 100 100 100 100 100 100 100 100 100 100 100 100 100 100 100 100 100 100 100 72 66 100 100 100 100 100 100 100 99 100 90 99 67 85 58 7 5 0 5 5
97 82 87 52 100 100 100 100 100 98 100 86 91 70 92 100 100 100 100 100 100 100 100 100 100 100 100 100 92 98 89 100 100 99 97 100 100 100 100 99 96 26 18 5 5 5 60 96 76
100 93 98 84 75 100 80 92 100 98 84 100 100 100 76 24 19 7 59 88 99 100 100 100 100 100 100 100 100 100 100 100 99 98 76 96 100 100 100 44 4 2 5 16 10 100 88 99 100
94 100 100 100 96 100 94 100 100 99 76 86 90 97 100 100 100 100 67 86 96 100 100 100 100 100 100 100 100 100 100 92 8 32 85 93 95 47 5 18 36 50 97 80 70 100 100 100 66
5 94 99 55 100 100 98 100 100 42 84 96 100 95 100 100 100 100 90 100 100 84 30 19 89 100 100 100 100 100 100 100 100 93 100 7 28 13 10 45 96 68 100 100 100 84 98 94 84
96 46 63 99 100 98 100 100 100 100 100 100 99 100 97 100 100 70 49 31 35 44 13 100 100 100 100 100 100 100 90 100 100 94 65 31 65 76 99 96 100 100 100 36 100 100 90 82 100
5 6 32 10 81 98 100 98 91 100 91 94 86 44 89 99 100 88 100 26 68 33 5 64 100 100 100 100 99 72 100 88 100 84 99 100 100 96 100 98 99 28 24 100 100 100 100 93 48
12 5 5 5 30 75 100 100 92 99 100 91 100 84 69 41 39 30 5 6 33 54 7 38 96 99 90 42 24 13 100 100 86 64 16 100 100 86 77 64 31 99 100 100 100 100 77 91 70
49 5 5 5 61 78 100 100 92 65 99 98 100 100 100 100 90 98 5 4 5 5 5 5 58 99 47 76 100 100 98 98 71 88 100 100 100 95 100 84 100 100 100 100 100 68 100 89 86
5 5 5 27 48 45 98 100 98 100 86 83 99 100 100 47 5 2 5 5 5 5 6 18 56 46 66 100 100 100 99 100 100 99 99 100 100 100 94 100 100 100 100 99 81 100 100 95 65